Flagstaff, AZ

5:48 AM MST on January 24, 2018 (GMT -0700)
Flagstaff Pulliam

Weather History for KFLG - November, 2011

Change the Weather History Date:

Wednesday, November 30, 2011

  Actual Average Record
Temperature  
Mean Temperature 37 °F 32 °F  
Max Temperature 54 °F 45 °F 66 °F (1995)
Min Temperature 19 °F 19 °F -4 °F (2010)
Degree Days  
Heating Degree Days 28 33  
Month to date heating degree days 855 849  
Since 1 July heating degree days 1596 1732  
Cooling Degree Days 0 0  
Month to date cooling degree days 0 0  
Year to date cooling degree days 170 117  
Moisture  
Dew Point 16 °F    
Average Humidity 47    
Maximum Humidity 73    
Minimum Humidity 20    
Precipitation  
Precipitation 0.00 in 0.06 in 2.13 in (1982)
Month to date precipitation 1.76 1.76  
Year to date precipitation 18.51 19.99  
Snow  
Snow 0.00 in 0.50 in 13.40 in (1982)
Month to date snowfall 12.5 10.7  
Since 1 July snowfall 12.5 12.2  
Snow Depth 0.00 in    
Sea Level Pressure  
Sea Level Pressure 29.95 in    
Wind  
Wind Speed 8 mph (SW)    
Max Wind Speed 25 mph    
Max Gust Speed 32 mph    
Visibility 10 miles    
Events      
T = Trace of Precipitation, MM = Missing Value Source: NWS Daily Summary

Daily Weather History Graph

Daily Weather History Graph

Search for Another Location

Airport or City:

Trip Planner

Search our weather history database for the weather conditions in past years. The results will help you decide how hot, cold, wet, or windy it might be!

Date:

Astronomy

Nov. 30, 2011 Rise Set
Actual Time 7:15 AM MST 5:14 PM MST
Civil Twilight 6:47 AM MST 5:42 PM MST
Nautical Twilight 6:16 AM MST 6:13 PM MST
Astronomical Twilight 5:45 AM MST 6:44 PM MST
Moon 11:41 AM MST (11/30) 11:08 PM MST (11/30)
Length of Visible Light 10h 54m
Length of Day
9h 59m
Waxing Crescent, 34% of the Moon is Illuminated
Nov 30
Waxing Crescent
Dec 2
First Quarter
Dec 10
Full
Dec 17
Last Quarter
Dec 24
New

Hourly Weather History & Observations

Time (MST) Temp. Windchill Dew Point Humidity Pressure Visibility Wind Dir Wind Speed Gust Speed Precip Events Conditions
12:57 AM 21.9 °F - 10.9 °F 63% 30.20 in 10.0 mi Calm Calm - N/A   Clear
1:57 AM 19.9 °F - 10.9 °F 68% 30.19 in 10.0 mi Calm Calm - N/A   Clear
2:57 AM 19.9 °F - 12.0 °F 71% 30.17 in 10.0 mi Calm Calm - N/A   Clear
3:57 AM 19.0 °F - 10.9 °F 71% 30.15 in 10.0 mi Calm Calm - N/A   Clear
4:57 AM 19.9 °F - 12.0 °F 71% 30.15 in 10.0 mi Calm Calm - N/A   Clear
5:57 AM 21.9 °F 15.7 °F 12.0 °F 66% 30.19 in 10.0 mi SSW 4.6 mph - N/A   Clear
6:57 AM 23.0 °F - 12.9 °F 65% 30.20 in 10.0 mi Calm Calm - N/A   Clear
7:57 AM 24.1 °F - 16.0 °F 71% 30.21 in 10.0 mi Calm Calm - N/A   Clear
8:57 AM 39.0 °F - 21.9 °F 50% 30.12 in 10.0 mi Calm Calm - N/A   Clear
9:57 AM 48.9 °F - 14.0 °F 25% 30.06 in 10.0 mi SW 13.8 mph - N/A   Clear
10:57 AM 52.0 °F - 14.0 °F 22% 30.03 in 10.0 mi SSW 13.8 mph - N/A   Clear
11:57 AM 53.1 °F - 14.0 °F 21% 29.98 in 10.0 mi SSW 17.3 mph - N/A   Clear
12:57 PM 54.0 °F - 15.1 °F 22% 29.93 in 10.0 mi SW 16.1 mph 24.2 mph N/A   Clear
1:57 PM 53.1 °F - 16.0 °F 23% 29.89 in 10.0 mi SW 15.0 mph 26.5 mph N/A   Clear
2:57 PM 53.1 °F - 18.0 °F 25% 29.84 in 10.0 mi SSW 18.4 mph - N/A   Clear
3:57 PM 50.0 °F - 18.0 °F 28% 29.83 in 10.0 mi SSW 19.6 mph 26.5 mph N/A   Clear
4:57 PM 48.0 °F - 19.0 °F 32% 29.80 in 10.0 mi SW 18.4 mph 26.5 mph N/A   Clear
5:57 PM 44.6 °F 38.1 °F 19.4 °F 37% 29.84 in 10.0 mi SW 13.8 mph - N/A   Clear
6:00 PM - - - N/A% - - North - - N/A   Unknown
6:57 PM 43.0 °F 35.4 °F 19.0 °F 38% 29.76 in 10.0 mi SSW 16.1 mph - N/A   Clear
7:57 PM 37.9 °F 31.5 °F 19.0 °F 47% 29.78 in 10.0 mi SSW 9.2 mph - N/A   Clear
8:57 PM 37.9 °F 34.4 °F 19.9 °F 48% 29.69 in 10.0 mi WSW 4.6 mph - N/A   Clear
9:57 PM 36.0 °F 28.5 °F 19.9 °F 52% 29.63 in 10.0 mi SW 10.4 mph - N/A   Clear
10:57 PM 32.0 °F 26.4 °F 18.0 °F 56% 29.64 in 10.0 mi SW 5.8 mph - N/A   Clear
11:57 PM 32.0 °F - 17.1 °F 54% 29.61 in 10.0 mi Calm Calm - N/A   Clear